www.pogodaiklimat.ru

АРХИВ ПОГОДЫ в в Форт-Смите

Время (UTC), дата Ветер
(напр.,м/с)
 
Видим.   Явления Облачность Т
(С)
Тd
(С)
f
(%)
Тe
(С)
Тes
(С)
Комфортность

P
(гПа)

Po
(гПа)
Тmin
(С)
Tmax
(С)
R
(мм)
SD
(см)
00:53 27.09 С  16 км    10/8 м
[средняя] 
+16.0  +12.0  77  +15  +15    1020.0  1003.1  +15.6  +17.8     
01:53 27.09 С  16 км    10/8 м
[средняя] 
+16.1  +12.2  78  +16  +16    1019.9  1003.1  +15.6  +17.8     
02:53 27.09 С  16 км    10/8 м
[средняя] 
+16.0  +12.0  77  +16  +16    1020.1  1003.1  +15.6  +17.8     
03:53 27.09 СВ  16 км    10/8 м
[средняя] 
+16.0  +12.0  77  +16  +16    1019.9  1003.1  +15.6  +17.8     
04:53 27.09 СВ  16 км  дымка  10/8 м
[средняя] 
+16.1  +12.2  78  +16  +16    1019.7  1002.8  +15.6  +17.8     
05:53 27.09 С  16 км    8/8 м  +16.0  +12.0  77  +16  +16    1019.2  1002.5  +13.9  +16.1     
06:53 27.09   16 км    ясно  +15.0  +13.0  88  +15  +15    1019.3  1002.5  +13.9  +16.1     
07:53 27.09 С  16 км    ясно  +14.4  +11.7  84  +14  +14    1019.0  1002.1  +13.9  +16.1     
08:53 27.09   16 км    ясно  +14.0  +12.0  88  +14  +14    1019.1  1002.1  +13.9  +16.1     
09:53 27.09   16 км    ясно  +14.0  +12.0  88  +14  +14    1019.2  1002.1  +13.9  +16.1     
10:53 27.09   16 км    ясно  +13.9  +12.8  93  +13  +13    1019.0  1002.1  +13.9  +16.1     
11:53 27.09   16 км    ясно  +14.0  +13.0  94  +14  +14    1018.9  1001.8  +13.3  +21.7     
13:53 27.09   16 км    ясно  +17.8  +12.8  73  +18  +19    1018.7  1001.8  +13.3  +21.7     
14:53 27.09 нст  16 км    ясно  +19.0  +12.0  64  +21  +24  комфорт  1018.8  1002.1  +13.3  +21.7     
15:53 27.09 СЗ  16 км    ясно  +21.0  +12.0  56  +24  +28  комфорт  1018.5  1001.8  +13.3  +21.7     
16:53 27.09 нст  16 км    ясно  +21.7  +11.7  53  +24  +29  комфорт  1017.8  1001.1  +13.3  +21.7     
17:53 27.09 ЮЗ  16 км    ясно  +23.0  +12.0  50  +26  +32  жарко  1016.8  1000.1  +21.1  +25.0     
18:53 27.09   16 км    ясно  +24.0  +11.0  44  +25  +34  комфорт  1015.9  999.1  +21.1  +25.0     
19:53 27.09 нст  16 км    ясно  +25.0  +11.7  43  +26  +32  жарко  1015.1  998.5  +21.1  +25.0     
20:53 27.09 ЮВ  16 км    ясно  +24.0  +11.0  44  +25  +29  комфорт  1014.7  998.1  +21.1  +25.0     
21:53 27.09 ЮЗ  16 км    ясно  +24.0  +11.0  44  +25  +27  комфорт  1014.7  997.8  +21.1  +25.0     
22:53 27.09 ЮВ  16 км    ясно  +23.3  +11.1  46  +26  +26  жарко  1014.8  998.1  +21.1  +25.0     
23:53 27.09   16 км    ясно  +21.0  +14.0  64  +24  +24  комфорт  1015.0  998.1  +16.1  +23.3     
00:53 28.09   16 км    ясно  +18.0  +15.0  83  +18  +18    1015.7  998.8  +16.1  +23.3     
01:53 28.09   16 км    ясно  +18.3  +14.4  78  +19  +19    1016.5  999.8  +16.1  +23.3     
02:53 28.09 В  16 км    5/5 м  +18.0  +14.0  77  +18  +18    1016.7  999.8  +16.1  +23.3     
03:53 28.09 СВ  16 км    ясно  +17.0  +14.0  82  +18  +18    1016.9  1000.1  +16.1  +23.3     
04:53 28.09 СВ  16 км    ясно  +16.1  +15.0  93  +16  +16    1017.1  1000.1  +16.1  +23.3     
05:53 28.09 СВ  16 км    ясно  +16.0  +14.0  88  +16  +16    1017.3  1000.5  +14.4  +16.1     
06:53 28.09 В  16 км    ясно  +16.0  +14.0  88  +16  +16    1017.6  1000.8  +14.4  +16.1     
07:53 28.09   16 км    ясно  +15.0  +14.4  96  +15  +15    1017.8  1001.1  +14.4  +16.1     
08:53 28.09 СВ  16 км    ясно  +14.0  +14.0  100  +13  +13    1018.2  1001.5  +14.4  +16.1     
09:36 28.09 СВ  16 км    10/10 0 м  +14.0  +14.0  100  +14  +14    1018.5  1001.5  +14.4  +16.1     
10:53 28.09   3 км    10/10 0 м  +14.4  +14.4  100  +14  +14    1018.8  1001.8  +14.4  +16.1     
11:48 28.09 В  800 м    ?/?  +14.0  +14.0  100  +14  +14    1019.4  1002.5  +13.9  +21.1     
12:20 28.09 В  6 км    10/10 м  +16.0  +15.0  94  +16  +16    1020.2  1002.8  +13.9  +21.1     
13:53 28.09 В  16 км    10/10 м  +16.7  +16.1  96  +17  +17    1020.6  1003.8  +13.9  +21.1     
14:26 28.09 В  16 км    10/10 м  +18.0  +17.0  94  +18  +18    1020.9  1003.8  +13.9  +21.1     
15:53 28.09 В  16 км    10/10 м  +21.0  +16.0  73  +25  +25  комфорт  1020.8  1004.1  +13.9  +21.1     
16:53 28.09 В  16 км    10/10 м  +20.6  +16.1  75  +24  +24  комфорт  1020.9  1004.1  +13.9  +21.1     
17:53 28.09   16 км    10/10 м  +22.0  +16.0  69  +26  +26  душно  1020.0  1003.1  +20.6  +25.0     
18:53 28.09   16 км    10/10 м  +23.0  +16.0  65  +27  +27  душно  1019.2  1002.5  +20.6  +25.0     
19:53 28.09   16 км    10/10 м  +23.3  +16.1  64  +28  +28  душно  1018.9  1002.1  +20.6  +25.0     
20:33 28.09   16 км    8/8 м  +24.0  +16.0  61  +27  +29  жарко  1018.5  1002.1  +20.6  +25.0     
21:53 28.09 нст  16 км    5/5 м  +24.0  +16.0  61  +27  +29  жарко  1018.7  1001.8  +20.6  +25.0     
22:53 28.09   16 км    ясно  +22.8  +16.7  68  +27  +28  душно  1019.1  1002.1  +20.6  +25.0     
23:53 28.09   16 км    ясно  +21.0  +18.0  83  +25  +25  комфорт  1019.5  1002.8  +17.8  +22.8     
00:53 29.09   16 км    ясно  +19.0  +17.0  88  +20  +20    1020.2  1003.5  +17.8  +22.8     

 

Местоположение метеостанции Fort Smith Regional Airport: широта 35.3336 долгота -94.3650 высота над уровнем моря 142 м.

В архиве по умолчанию представлена погода в в Форт-Смите за последние 1-2 суток. Обновление информации о фактической погоде в базе происходит ежечасно! Архивные данные за месяц целиком и за предыдущие месяцы Вы можете получить, выбрав интересующий диапазон дат из раскрывающегося списка и нажав кнопку "Ввод!".

Внимание! Архив погоды МЕТАР в базе сайта в настоящее время начинается c 1 января 2011 г. Нет смысла пытаться выбрать более раннюю дату.

Внимание! Время в таблицах - всемирное. Для получения местного времени необходимо прибавить поправку, которая в в Форт-Смите равна -6 ч.

Ветер - указаны скорость ветра в м/с и направление, откуда дует ветер: С - северный, СВ - северо-восточный, В - восточный, ЮВ - юго-восточный, Ю - южный, ЮЗ - юго-западный, З - западный, СЗ - северо-западный.
Видимость - горизонтальная дальность видимости в метрах или километрах. При видимости от 1 до 10 км при отсутствии осадков обычно наблюдается дымка, при ухудшении видимости до 1 км и менее - туман. В сухую погоду видимость может ухудшаться дымом, пылью или мглою.
Атмосферные явления - указаны явления, наблюдавшиеся в указанный момент времени.
Облачность - указаны через наклонную черту верхняя и нижняя облачность в баллах и высота нижней границы облаков в метрах. Внимание: облачность, как и прочие метеорологические величины в США измеряются автоматическими метеостанциями. Указанные значения в баллах носят условный характер и показывают процент времени, в течение которого, в среднем, лазерный луч высотомера отражался от облаков обратно.
T - Температура воздуха - температура, измеренная на высоте 2 м над землей.
Td - Температура точки росы - температура, при понижении до которой содержащийся в воздухе водяной пар достигнет насыщения.
f - Относительная влажность воздуха - влажноcть воздуха, измеренная на высоте 2 м над землей.
Te - Эффективная температура - температура, которую ощущает одетый по сезону человек в тени. Характеристика душности погоды. При расчете учитывается влияние влажности воздуха и скорости ветра на теплоощущения человека.
Tes - Эффективная температура на солнце - температура, которую ощущает человек, с поправкой на солнечный нагрев. Характеристика знойности погоды. Зависит от высоты солнца над горизонтом, облачности и скорости ветра. Ночью, в пасмурную погоду, а также при ветре 12 м/с и более поправка равна нулю.
P - Атмосферное давление - приведенное к уровню моря атмосферное давление.
Po - Атмосферное давление - измеренное на уровне метеостанции атмосферное давление.
Tmin - Минимальная температура - минимум температуры воздуха на высоте 2 м над землей.
Tmax - Максимальная температура - максимум температуры воздуха на высоте 2 м над землей.
R - Количество осадков - Количество выпавших осадков за 3 или 6 часов, мм.
SD - Снежный покров - Высота снежного покрова, см.